DMSP 5D-2 F13 DEB, 40400

Orbit data source: Space-Track

DMSP 5D-2 F13 DEB, 40400 is space debris in SSO originally from a launch on Fri, 24 Mar 1995 UTC launched from the Air Force Western Test Range (AFWTR). Debris objects in space refer to the collection of defunct objects orbiting the Earth. Examples of debris include non-operational satellites, rocket bodies, and fragments generated from explosions, collisions, or faulty payload assembly.

Loading next visibility...
Identifier
40400, 1995-015M
Orbit
SSO
Country
Flag of USUS
Related business
Manufacturer
Unknown
Mission
Spacecraft
Bus & Motor
Unknown
Mass
Unknown
Launch date (UTC)
1995-03-24 (31 years ago)
Launch vehicle
Unknown
Launch site
Air Force Western Test Range (AFWTR)
Object type
Payload
Rocket body
Debris
Shape & HBR
Unknown shape, 0.1 m
Radar Cross Section
Small (<0.1 m²)

Expand to show TLE details & history
Last TLE update: 18 hours ago

TLE from 18 hours ago
0 DMSP 5D-2 F13 DEB
1 40400U 95015M   25348.05150900  .00004193  00000-0  11636-2 0  9996
2 40400  98.4864  13.9176 0131797 204.5470 154.9408 14.42043674564445
Epoch: 2025-12-14T01:14Z
TLE epoch observation values (Epoch: 2025-12-14T01:14:10.377Z)
Latitude
-0.00009°
Longitude
-87.5956°
Altitude
840.066 km
Speed
7.388 km/s
True Right ascension
00h 55m 40s
True Declination
0° 00' 00"
Sunlit
Object was in daylight at epoch
Visualization orbit readout
Latitude
Unknown
Longitude
Unknown
Altitude
Unknown
Speed
Unknown
Apparent Right ascension
Unknown
Apparent Declination
Unknown
Sunlit
N/A
Visualization observer readout
Local Sidereal Time
18:14:42
Azimuth
Unknown
Elevation
Unknown
Doppler factor
Unknown
Orbital elements
Apogee altitude
842.804 km
Perigee altitude
654.94 km
Semi-major axis
7,127.009 km
Eccentricity
0.01318
Inclination
98.4864°
RAAN
13.9176°
Arg. of periapsis
204.547°
True anomaly
155.57106°
Mean anomaly
154.9408°
Eccentric anomaly
155.25687°
Mean motion
3.6073 °/min
Orbital period
99.8 mins
BSTAR
0.0011636
Loading maneuver chart data...
Computing Atmospheric mass density...

Documentation

Showing up to 5 results
|